Regional Weather Roundup
Issued by NWS

Home | Current Version | Previous Version | Graphics & Text | Print | Product List | Glossary On
Versions: 1 2 3 4 5 6 7 8 9 10 11 12 13 14 15 16 17 18 19 20 21 22 23 24 25 26 27 28 29 30 31 32 33 34 35 36 37 38 39 40 41 42 43 44 45 46 47 48 49 50
000
ASUS43 KTOP 262159
RWRKS

WEATHER ROUNDUP FOR KANSAS
NATIONAL WEATHER SERVICE GOODLAND KS
400 PM CST FRI DEC 26 2014

NOTE:  "FAIR" INDICATES FEW OR NO CLOUDS BELOW 12,000 FEET WITH NO
SIGNIFICANT WEATHER AND/OR OBSTRUCTIONS TO VISIBILITY.

KSZ001>006-013>018-027>032-041>047-262300-
NORTHWEST KANSAS

CITY           SKY/WX    TMP DP  RH WIND       PRES   REMARKS
GOODLAND       LGT SNOW  21  18  88 N14       29.96S FOG     WCI   8
HAYS           CLOUDY    28  19  69 N13       29.97R WCI  18
HILL CITY      LGT SNOW  27  24  89 N13       30.00R VSB 3/4 WCI  16
RUSSELL        CLOUDY    29  28  96 N10       29.97R FOG     WCI  20
$$

KSZ061>065-074>080-084>089-262300-
SOUTHWEST KANSAS

CITY           SKY/WX    TMP DP  RH WIND       PRES   REMARKS
DODGE CITY     CLOUDY    27  24  89 N10       29.96R WCI  17
ELKHART          N/A     27  19  72 N7          N/A
GARDEN CITY    CLOUDY    26  22  84 N16       29.94S WCI  14
GREAT BEND     CLOUDY    30  23  74 N14       29.96S WCI  20
LIBERAL        CLOUDY    28  21  74 N16       29.96S WCI  17
$$

KSZ066>073-081>083-090>101-262300-
SOUTHEAST KANSAS

CITY           SKY/WX    TMP DP  RH WIND       PRES   REMARKS
CHANUTE        CLOUDY    55  47  74 S5        29.89R
COFFEYVILLE    CLOUDY    56  48  74 S15       29.88R
HUTCHINSON     CLOUDY    33  29  85 N12       29.94S FOG     WCI  24
MEDICINE LODGE   N/A     33  30  88 N8        29.97R
NEWTON         CLOUDY    34  28  80 N13       29.94S WCI  25
PARSONS        CLOUDY    56  49  77 S10       29.89R
WICHITA INTL   CLOUDY    38  32  79 NW15      29.93R WCI  29
WICHITA JABRA  CLOUDY    37  32  82 N13       29.91S WCI  29
WINFIELD       CLOUDY    45  36  70 N8        29.91R
$$

KSZ007>012-019>026-033>040-048>060-102>105-262300-
NORTHEAST KANSAS

CITY           SKY/WX    TMP DP  RH WIND       PRES   REMARKS
CONCORDIA      CLOUDY    30  29  96 N10       29.98R FOG     WCI  21
EMPORIA        CLOUDY    40  33  76 N8        29.91S
LAWRENCE       CLOUDY    42  34  73 N12       29.93R
MANHATTAN      CLOUDY    35  33  92 N5        29.97R FOG
OLATHE IND     CLOUDY    45  37  73 NW9       29.92R
OLATHE EXE     CLOUDY    49  39  68 NW8       29.90R
SALINA         CLOUDY    34  29  82 N14       29.99R WCI  25
TOPEKA BILLARD CLOUDY    40  34  79 N8        29.95S
TOPEKA FORBES  CLOUDY    40  32  73 N9        29.93S HAZE
$$



USA.gov is the U.S. government's official web portal to all federal, state and local government web resources and services.